Terug naar catalogus

TIANMU-1 04

ActiefMilitairSSO
NORAD 55974·PAYLOAD·🇨🇳 China

Gelanceerd Mar 22, 2023 vanaf Jiuquan Satellite Launch Center

Loading…

Volgende Passages (komende 24 uur)

TLE

VersSource: Space-Track

Epoch: Sep 14, 2026, 22:57 UTC

1 55974U 23039B   26257.95684491  .00016392  00000-0  29087-3 0  9995
2 55974  97.5200  74.7986 0004773 112.2506 247.9252 15.50298113194745

Volg TIANMU-1 04 in realtime met AllMySat

Download on the App Store